SAS6V ENZV-EGPD

Flight info

Callsign SAS6V
Flight time 0h 28m
Altitude 34000
Route LAPOT DCT KLONN DCT OVDAN P600 ADN
Aircraft A21N/M-SDE2E3FGHIRWXY/LB1

Departure

Time 2026-04-23 09:53
Airport Stavanger Airport, Sola (ENZV)

Arrival

Time 2026-04-23 10:21
Airport Aberdeen International Airport (EGPD)
Time Latitude Longitude Altitude Speed Heading
2026-04-23 09:38 58.88056 5.62908 28 ft 0 kts 344°
2026-04-23 09:44 58.88054 5.62910 28 ft 1 kts 344°
2026-04-23 09:44 58.88040 5.62917 28 ft 2 kts 344°
2026-04-23 09:44 58.88034 5.62921 29 ft 0 kts 344°
2026-04-23 09:46 58.88031 5.62922 28 ft 2 kts 343°
2026-04-23 09:46 58.88015 5.62931 29 ft 2 kts 344°
2026-04-23 09:46 58.88001 5.62939 30 ft 1 kts 344°
2026-04-23 09:47 58.88000 5.62940 30 ft 0 kts 344°
2026-04-23 09:49 58.88005 5.62941 29 ft 2 kts
2026-04-23 09:49 58.88023 5.62976 29 ft 4 kts 72°
2026-04-23 09:49 58.88029 5.63059 30 ft 8 kts 77°
2026-04-23 09:50 58.88043 5.63186 31 ft 11 kts 101°
2026-04-23 09:50 58.87998 5.63328 33 ft 14 kts 127°
2026-04-23 09:50 58.87904 5.63336 34 ft 17 kts 200°
2026-04-23 09:50 58.87776 5.63291 34 ft 21 kts 178°
2026-04-23 09:51 58.87613 5.63295 34 ft 25 kts 179°
2026-04-23 09:51 58.87430 5.63302 34 ft 27 kts 178°
2026-04-23 09:51 58.87236 5.63306 34 ft 29 kts 180°
2026-04-23 09:51 58.87062 5.63314 36 ft 23 kts 173°
2026-04-23 09:52 58.87007 5.63549 37 ft 22 kts 63°
2026-04-23 09:52 58.87081 5.63790 38 ft 16 kts 30°
2026-04-23 09:52 58.87134 5.63800 37 ft 0 kts 359°
2026-04-23 09:52 58.87381 5.63791 37 ft 85 kts 359°
2026-04-23 09:53 58.88309 5.63766 90 ft 171 kts 358°
2026-04-23 09:53 58.89599 5.63722 843 ft 196 kts 357°
2026-04-23 09:53 58.90999 5.63677 2151 ft 211 kts 359°
2026-04-23 09:53 58.92541 5.63631 3329 ft 227 kts 358°
2026-04-23 09:54 58.94128 5.63588 4893 ft 229 kts 358°
2026-04-23 09:54 58.95741 5.63543 6367 ft 235 kts 357°
2026-04-23 09:54 58.97391 5.63494 7581 ft 244 kts 356°
2026-04-23 09:54 58.99116 5.63440 8680 ft 252 kts 356°
2026-04-23 09:55 59.00898 5.63385 9830 ft 259 kts 356°
2026-04-23 09:55 59.02730 5.63247 10897 ft 266 kts 351°
2026-04-23 09:55 59.04537 5.62333 11870 ft 272 kts 334°
2026-04-23 09:55 59.06094 5.60225 12929 ft 277 kts 314°
2026-04-23 09:56 59.07158 5.57116 13940 ft 285 kts 293°
2026-04-23 09:56 59.07549 5.53302 14950 ft 292 kts 272°
2026-04-23 09:56 59.07274 5.49346 15963 ft 301 kts 256°
2026-04-23 09:56 59.06408 5.45563 16846 ft 314 kts 241°
2026-04-23 09:57 59.04936 5.42202 17350 ft 341 kts 222°
2026-04-23 09:57 59.02825 5.39766 17946 ft 363 kts 203°
2026-04-23 09:57 59.00348 5.38772 18798 ft 374 kts 184°
2026-04-23 09:57 58.97743 5.39453 19595 ft 381 kts 162°
2026-04-23 09:58 58.95324 5.41629 20411 ft 388 kts 152°
2026-04-23 09:58 58.92864 5.43937 21070 ft 395 kts 162°
2026-04-23 09:58 58.90178 5.44925 21908 ft 393 kts 177°
2026-04-23 09:58 58.87450 5.45132 22833 ft 394 kts 180°
2026-04-23 09:59 58.84704 5.45176 23638 ft 397 kts 182°
2026-04-23 09:59 58.81938 5.44738 24278 ft 400 kts 192°
2026-04-23 09:59 58.79293 5.43293 24959 ft 399 kts 204°
2026-04-23 09:59 58.76846 5.40786 25631 ft 398 kts 215°
2026-04-23 10:00 58.74746 5.37337 26296 ft 397 kts 228°
2026-04-23 10:00 58.73080 5.33098 26991 ft 396 kts 239°
2026-04-23 10:00 58.71919 5.28291 27529 ft 399 kts 251°
2026-04-23 10:00 58.71233 5.23079 28005 ft 403 kts 258°
2026-04-23 10:01 58.70718 5.17776 28648 ft 403 kts 258°
2026-04-23 10:01 58.70226 5.12527 29248 ft 404 kts 258°
2026-04-23 10:01 58.69715 5.07189 29655 ft 409 kts 258°
2026-04-23 10:01 58.69186 5.01774 30097 ft 413 kts 257°
2026-04-23 10:02 58.68647 4.96329 30487 ft 417 kts 257°
2026-04-23 10:02 58.68098 4.90850 30925 ft 419 kts 257°
2026-04-23 10:02 58.67539 4.85333 31254 ft 422 kts 257°
2026-04-23 10:02 58.66972 4.79749 31627 ft 424 kts 257°
2026-04-23 10:03 58.66405 4.74190 32178 ft 422 kts 256°
2026-04-23 10:03 58.65841 4.68693 32776 ft 418 kts 257°
2026-04-23 10:03 58.65283 4.63277 33193 ft 419 kts 257°
2026-04-23 10:03 58.64713 4.57776 33641 ft 418 kts 257°
2026-04-23 10:04 58.64147 4.52319 34176 ft 416 kts 256°
2026-04-23 10:04 58.63578 4.46869 34427 ft 415 kts 256°
2026-04-23 10:04 58.62955 4.41472 34439 ft 414 kts 254°
2026-04-23 10:05 58.61470 4.30845 34445 ft 414 kts 251°
2026-04-23 10:05 58.59882 4.20242 34461 ft 415 kts 251°
2026-04-23 10:06 58.58296 4.09600 34454 ft 414 kts 251°
2026-04-23 10:06 58.56724 3.98956 34472 ft 415 kts 252°
2026-04-23 10:07 58.55161 3.88362 34463 ft 415 kts 251°
2026-04-23 10:07 58.53579 3.77717 34458 ft 415 kts 251°
2026-04-23 10:08 58.51986 3.67066 34476 ft 416 kts 251°
2026-04-23 10:08 58.50391 3.56489 34475 ft 416 kts 251°
2026-04-23 10:09 58.47967 3.40533 34488 ft 416 kts 251°
2026-04-23 10:09 58.46339 3.29902 34487 ft 417 kts 251°
2026-04-23 10:10 58.44713 3.19347 34495 ft 417 kts 251°
2026-04-23 10:10 58.42264 3.03574 34496 ft 417 kts 250°
2026-04-23 10:11 58.38825 2.81771 34487 ft 442 kts 249°
2026-04-23 10:11 58.34832 2.60413 34502 ft 438 kts 246°
2026-04-23 10:11 58.33539 2.53658 34504 ft 437 kts 247°
2026-04-23 10:12 58.32246 2.46858 34527 ft 438 kts 246°
2026-04-23 10:12 58.31078 2.40704 34514 ft 436 kts 246°
2026-04-23 10:13 58.29615 2.33006 34511 ft 435 kts 246°
2026-04-23 10:13 58.25027 2.09098 34519 ft 435 kts 246°
2026-04-23 10:14 58.16620 1.66064 34533 ft 434 kts 245°
2026-04-23 10:14 58.08061 1.23206 34537 ft 435 kts 245°
2026-04-23 10:15 57.96876 0.68468 34535 ft 433 kts 244°
2026-04-23 10:15 57.82621 0.07342 26969 ft 480 kts 226°
2026-04-23 10:15 57.75159 -0.06176 2692 ft 456 kts 231°
2026-04-23 10:16 57.74543 -0.07525 15 ft 0 kts 222°
2026-04-23 10:17 57.36376 -2.31784 3537 ft 167 kts 158°
2026-04-23 10:17 57.35608 -2.31206 3538 ft 165 kts 158°
2026-04-23 10:17 57.35008 -2.30744 3537 ft 164 kts 158°
2026-04-23 10:18 57.34445 -2.30311 3523 ft 163 kts 158°
2026-04-23 10:18 57.33400 -2.29497 3303 ft 169 kts 156°
2026-04-23 10:18 57.32309 -2.28603 3025 ft 176 kts 157°
2026-04-23 10:18 57.31194 -2.27723 2765 ft 172 kts 159°
2026-04-23 10:19 57.30116 -2.26920 2566 ft 161 kts 160°
2026-04-23 10:19 57.29097 -2.26149 2354 ft 156 kts 161°
2026-04-23 10:19 57.28088 -2.25448 2082 ft 154 kts 162°
2026-04-23 10:19 57.27097 -2.24784 1808 ft 149 kts 161°
2026-04-23 10:20 57.26113 -2.24133 1522 ft 151 kts 161°
2026-04-23 10:20 57.25129 -2.23465 1261 ft 148 kts 159°
2026-04-23 10:20 57.24197 -2.22702 1009 ft 146 kts 158°
2026-04-23 10:20 57.23276 -2.22048 782 ft 140 kts 158°
2026-04-23 10:21 57.22410 -2.21343 648 ft 132 kts 159°
2026-04-23 10:21 57.21559 -2.20774 384 ft 128 kts 160°
2026-04-23 10:21 57.20758 -2.20194 217 ft 117 kts 158°
2026-04-23 10:21 57.20244 -2.19819 218 ft 39 kts 158°
2026-04-23 10:22 57.20026 -2.19659 219 ft 25 kts 158°
2026-04-23 10:22 57.19905 -2.19570 219 ft 18 kts 158°
2026-04-23 10:22 57.19795 -2.19487 220 ft 0 kts 159°